sat.trackr.live / text

‹ back to catalog

GENMAT-1

NORAD 58276 · 2023-174W

PAYLOAD ACTIVE UNKNOWN

§ Identity

Operator
Country
US
Launch date
2023-11-11
Launch site
AFWTR
Launch vehicle
Mass (kg)
RCS (m²)

External: N2YO · Heavens-Above · Gunter

§ Orbital elements

Epoch: 2026-05-25T03:57:13.788288Z

Period
93.86 min
Inclination
97.3673°
Eccentricity
0.0005141
Mean motion
15.34161154 rev/d
Perigee alt
459.9 km
Apogee alt
466.9 km
Semi-major
6,841.6 km
B*
2.9740e-4
RAAN
223.0269°
Arg perigee
262.5357°
Mean anomaly
97.5302°
Rev number
14,144

§ Raw data

GENMAT-11 58276U 23174W   26145.16474292  .00009759  00000+0  29740-3 0  99922 58276  97.3673 223.0269 0005141 262.5357  97.5302 15.34161154141441

JSON: /api/v1/satellites/58276 · /tle

For live sub-satellite position, see the globe view (requires WebGL).

§ Visibility from observer

Set your observer location to see the next 7 days of passes ≥ 10°. The values pass through the URL so the page stays shareable.

No JS? Fill the form by hand. The geolocation button needs JavaScript.

§ Radio — SatNOGS DB

ModeDescriptionDownlinkUplink
GFSK Mode S - Transmitter 2.245 GHz

1 transmitter · refreshed weekly from db.satnogs.org